< < Back
Terminal Aerodrome Forecast


Current Version              Previous Versions:   1  2  3  4  5  6  7  8  9  

Terminal Aerodrome Forecast

581
FTUS42 KMLB 160500
TAFDAB
TAF
KDAB 160531Z 1606/1706 34011KT P6SM FEW020 BKN250
     FM161300 02015G20KT P6SM SCT040 SCT250
     FM161500 04017G26KT P6SM BKN040
     FM170100 04013KT P6SM VCSH BKN030=



Latest METAR

965
SAUS80 KWBC 170700
MTRDAB
METAR KDAB 170653Z 36006KT 8SM FEW200 18/16 A3020 RMK AO2 SLP225
T01780161 $


USA.gov is the U.S. government's official web portal to all federal, state and local government web resources and services.